Weather History for Chester, SC

Change the Weather History Date:

Thursday, December 6, 2012

  Actual Average (KUZA) Record (KUZA)
Temperature  
Mean Temperature 50 °F -  
Max Temperature 55 °F 56 °F 78 °F (1956)
Min Temperature 46 °F 33 °F 19 °F (2010)
Degree Days  
Heating Degree Days 14    
Moisture  
Dew Point 39 °F    
Average Humidity 67    
Maximum Humidity 87    
Minimum Humidity 58    
Precipitation  
Precipitation 0.00 in - - ()
Sea Level Pressure  
Sea Level Pressure 30.23 in    
Wind  
Wind Speed 7 mph (NE)    
Max Wind Speed 13 mph    
Max Gust Speed -    
Visibility 10 miles    
Events Thunderstorm    
Averages and records for this station are not official NWS values.
T = Trace of Precipitation, MM = Missing Value Source: NWS Daily Summary

Daily Weather History Graph

Daily Weather History Graph

Search for Another Location

Airport:

Trip Planner

Search our weather history database for the weather conditions in past years. The results will help you decide how hot, cold, wet, or windy it might be!

Date:

Astronomy

Dec. 06, 2012 Rise Set
Actual Time 7:18 AM EST 5:13 PM EST
Civil Twilight 6:50 AM EST 5:41 PM EST
Nautical Twilight 6:19 AM EST 6:12 PM EST
Astronomical Twilight 5:48 AM EST 6:43 PM EST
Moon No Moon Rise 12:24 PM EST (12/6)
Length of Visible Light 10h 50m
Length of Day
9h 54m
Waning Gibbous, 49% of the Moon is Illuminated
Dec 6
Waning Gibbous
Dec 13
New
Dec 20
First Quarter
Dec 28
Full
Jan 4
Last Quarter

Hourly Weather History & Observations

Time (EST) Temp. Windchill Dew Point Humidity Pressure Visibility Wind Dir Wind Speed Gust Speed Precip Events Conditions
12:15 AM 55.4 °F - 46.4 °F 72% 30.20 in 10.0 mi NNE 4.6 mph - N/A   Overcast
12:35 AM 53.6 °F - 46.4 °F 77% 30.19 in 10.0 mi NNE 3.5 mph - N/A   Overcast
12:55 AM 53.6 °F - 46.4 °F 77% 30.18 in 10.0 mi ENE 5.8 mph - N/A   Overcast
1:15 AM 53.6 °F - 46.4 °F 77% 30.18 in 10.0 mi NE 6.9 mph - N/A   Overcast
1:35 AM 53.6 °F - 44.6 °F 72% 30.19 in 10.0 mi NE 6.9 mph - N/A   Mostly Cloudy
8:35 AM 46.4 °F 41.5 °F 42.8 °F 87% 30.27 in 7.0 mi NNE 10.4 mph - N/A   Drizzle
8:55 AM 46.4 °F 41.5 °F 42.8 °F 87% 30.27 in 10.0 mi NNE 10.4 mph - N/A   Overcast
9:15 AM 46.4 °F 43.5 °F 42.8 °F 87% 30.27 in 10.0 mi NNE 5.8 mph - N/A   Overcast
9:35 AM 46.4 °F 41.9 °F 42.8 °F 87% 30.28 in 10.0 mi NE 9.2 mph - N/A   Overcast
9:55 AM 48.2 °F - 42.8 °F 82% 30.28 in 10.0 mi NE 9.2 mph - N/A   Overcast
10:15 AM 48.2 °F - 41.0 °F 76% 30.28 in 10.0 mi NE 9.2 mph - N/A   Overcast
10:35 AM 50.0 °F - 42.8 °F 76% 30.28 in 10.0 mi NNE 9.2 mph - N/A   Overcast
10:55 AM 50.0 °F - 41.0 °F 71% 30.28 in 10.0 mi NE 10.4 mph - N/A   Overcast
11:15 AM 50.0 °F - 41.0 °F 71% 30.27 in 10.0 mi NE 8.1 mph - N/A   Overcast
11:35 AM 50.0 °F - 41.0 °F 71% 30.27 in 10.0 mi NNE 11.5 mph - N/A   Overcast
11:55 AM 50.0 °F - 41.0 °F 71% 30.25 in 10.0 mi NE 12.7 mph - N/A Thunderstorm Overcast
12:15 PM 50.0 °F - 41.0 °F 71% 30.25 in 10.0 mi ENE 8.1 mph - N/A   Overcast
12:35 PM 50.0 °F - 41.0 °F 71% 30.24 in 10.0 mi NE 10.4 mph - N/A   Overcast
12:55 PM 50.0 °F - 39.2 °F 66% 30.24 in 10.0 mi NE 9.2 mph - N/A   Overcast
1:15 PM 50.0 °F - 39.2 °F 66% 30.23 in 10.0 mi NE 6.9 mph - N/A   Overcast
1:35 PM 50.0 °F - 37.4 °F 62% 30.23 in 10.0 mi ENE 9.2 mph - N/A   Overcast
1:55 PM 50.0 °F - 37.4 °F 62% 30.22 in 10.0 mi NE 8.1 mph - N/A   Overcast
2:15 PM 50.0 °F - 37.4 °F 62% 30.22 in 10.0 mi NE 8.1 mph - N/A   Overcast
2:35 PM 50.0 °F - 37.4 °F 62% 30.21 in 10.0 mi East 6.9 mph - N/A   Overcast
2:55 PM 50.0 °F - 37.4 °F 62% 30.21 in 10.0 mi East 4.6 mph - N/A   Overcast
3:15 PM 50.0 °F - 39.2 °F 66% 30.22 in 10.0 mi ENE 8.1 mph - N/A   Overcast
3:35 PM 50.0 °F - 37.4 °F 62% 30.21 in 10.0 mi East 6.9 mph - N/A Thunderstorm Overcast
3:55 PM 50.0 °F - 37.4 °F 62% 30.21 in 10.0 mi NE 6.9 mph - N/A   Overcast
4:15 PM 50.0 °F - 37.4 °F 62% 30.21 in 10.0 mi NE 5.8 mph - N/A   Overcast
4:35 PM 50.0 °F - 37.4 °F 62% 30.22 in 10.0 mi NE 5.8 mph - N/A   Overcast
4:55 PM 50.0 °F - 37.4 °F 62% 30.22 in 10.0 mi NE 4.6 mph - N/A   Overcast
5:15 PM 50.0 °F - 37.4 °F 62% 30.22 in 10.0 mi ENE 4.6 mph - N/A   Overcast
5:35 PM 50.0 °F - 37.4 °F 62% 30.22 in 10.0 mi NE 4.6 mph - N/A   Overcast
5:55 PM 50.0 °F - 37.4 °F 62% 30.22 in 10.0 mi NE 5.8 mph - N/A   Overcast
6:15 PM 50.0 °F - 35.6 °F 58% 30.22 in 10.0 mi ENE 4.6 mph - N/A   Overcast
6:35 PM 50.0 °F - 35.6 °F 58% 30.22 in 10.0 mi NE 5.8 mph - N/A   Overcast
6:55 PM 50.0 °F - 35.6 °F 58% 30.22 in 10.0 mi NE 5.8 mph - N/A   Overcast
7:15 PM 50.0 °F - 35.6 °F 58% 30.23 in 10.0 mi ENE 5.8 mph - N/A   Overcast
7:35 PM 50.0 °F - 35.6 °F 58% 30.23 in 10.0 mi ENE 8.1 mph - N/A   Overcast
7:55 PM 50.0 °F - 35.6 °F 58% 30.23 in 10.0 mi ENE 6.9 mph - N/A   Overcast
8:15 PM 48.2 °F - 35.6 °F 62% 30.22 in 10.0 mi ENE 5.8 mph - N/A   Overcast
8:55 PM 48.2 °F - 35.6 °F 62% 30.22 in 10.0 mi ENE 4.6 mph - N/A   Overcast
9:35 PM 48.2 °F - 35.6 °F 62% 30.22 in 10.0 mi East 3.5 mph - N/A   Overcast
9:55 PM 48.2 °F - 35.6 °F 62% 30.22 in 10.0 mi NE 3.5 mph - N/A   Overcast
10:15 PM 48.2 °F - 35.6 °F 62% 30.22 in 10.0 mi NE 4.6 mph - N/A   Overcast
10:35 PM 48.2 °F - 35.6 °F 62% 30.23 in 10.0 mi Calm Calm - N/A   Overcast
10:55 PM 48.2 °F - 37.4 °F 66% 30.23 in 10.0 mi North 3.5 mph - N/A   Overcast
11:15 PM 48.2 °F - 35.6 °F 62% 30.22 in 10.0 mi North 6.9 mph - N/A   Overcast
11:35 PM 48.2 °F - 35.6 °F 62% 30.22 in 10.0 mi NNE 5.8 mph - N/A   Overcast
11:55 PM 48.2 °F - 35.6 °F 62% 30.20 in 10.0 mi NNE 9.2 mph - N/A   Overcast